Terug naar catalogus

THOR ABLESTAR DEB

ActiefLEO
NORAD 3744·DEBRIS·🇺🇸 United States

Gelanceerd Jun 29, 1961 vanaf Cape Canaveral Space Force Station

Loading…

Volgende Passages (komende 24 uur)

TLE

VersSource: Space-Track

Epoch: Sep 14, 2026, 09:47 UTC

1 03744U 61015JC  26257.40768236  .00001870  00000-0  12045-2 0  9999
2 03744  66.9737 252.8726 0115897  39.4639 321.4816 14.01922908893039

Volg THOR ABLESTAR DEB in realtime met AllMySat

Download on the App Store